,,,PA_Meas_PMT16A,,PR_Meas_QMR101_102,,RH_Meas_QMH101,,SR_Meas_QMS101,,TA_Meas_QMH101,,GenWind,,GenWind,
date,time,status,PA,status,PR,status,RH,status,SR,status,TA,status,DirAvg,status,SpdAvg,
2008-03-11, 00:00:04,VALID,1003.75,VALID,0,VALID,87.2668,VALID,0,VALID,25.0079,VALID,298,VALID,0,
2008-03-11, 00:01:04,VALID,1003.79,VALID,0,VALID,87.6863,VALID,0.100563,VALID,24.9885,VALID,309,VALID,0.642187,
2008-03-11, 00:02:04,VALID,1003.81,VALID,0,VALID,88.0144,VALID,0.100563,VALID,24.9495,VALID,345,VALID,0.0398437,
2008-03-11, 00:03:04,VALID,1003.84,VALID,0,VALID,88.4035,VALID,0.100563,VALID,24.9106,VALID,345,VALID,0.247266,
2008-03-11, 00:04:04,VALID,1003.86,VALID,0,VALID,88.6018,VALID,0.100563,VALID,24.8735,VALID,345,VALID,0,
2008-03-11, 00:05:04,VALID,1003.93,VALID,0,VALID,88.9527,VALID,0.100563,VALID,24.8132,VALID,345,VALID,0.00195313,
2008-03-11, 00:06:04,VALID,1003.93,VALID,0,VALID,89.3189,VALID,0,VALID,24.7548,VALID,345,VALID,0,
2008-03-11, 00:07:04,VALID,1003.91,VALID,0,VALID,89.6393,VALID,0.100563,VALID,24.7353,VALID,345,VALID,0,
2008-03-11, 00:08:04,VALID,1003.92,VALID,0,VALID,89.6088,VALID,0,VALID,24.6788,VALID,345,VALID,0,
2008-03-11, 00:09:04,VALID,1003.9,VALID,0,VALID,89.7767,VALID,0,VALID,24.6417,VALID,345,VALID,0,
2008-03-11, 00:10:04,VALID,1003.95,VALID,0,VALID,90.0971,VALID,0,VALID,24.5833,VALID,345,VALID,0,
2008-03-11, 00:11:04,VALID,1003.91,VALID,0,VALID,90.0894,VALID,0,VALID,24.5035,VALID,345,VALID,0,
2008-03-11, 00:12:04,VALID,1003.91,VALID,0,VALID,90.1047,VALID,0,VALID,24.4062,VALID,345,VALID,0,
2008-03-11, 00:13:04,VALID,1003.9,VALID,0,VALID,90.1886,VALID,0,VALID,24.3478,VALID,360,VALID,0.189844,
2008-03-11, 00:14:04,VALID,1003.87,VALID,0,VALID,90.387,VALID,0,VALID,24.2717,VALID,360,VALID,0,
2008-03-11, 00:15:04,VALID,1003.85,VALID,0,VALID,90.6616,VALID,0,VALID,24.1531,VALID,360,VALID,0,
2008-03-11, 00:16:04,VALID,1003.83,VALID,0,VALID,91.1117,VALID,0,VALID,24.0752,VALID,360,VALID,0,
2008-03-11, 00:17:04,VALID,1003.79,VALID,0,VALID,91.5008,VALID,0,VALID,23.9973,VALID,360,VALID,0,
2008-03-11, 00:18:04,VALID,1003.77,VALID,0,VALID,91.7831,VALID,0,VALID,23.9584,VALID,360,VALID,0.260156,
2008-03-11, 00:19:04,VALID,1003.75,VALID,0,VALID,92.2027,VALID,0,VALID,23.9195,VALID,360,VALID,0.246484,
2008-03-11, 00:20:04,VALID,1003.73,VALID,0,VALID,92.5841,VALID,0,VALID,23.9408,VALID,360,VALID,0.375,
2008-03-11, 00:21:04,VALID,1003.71,VALID,0,VALID,92.7901,VALID,0,VALID,23.9,VALID,360,VALID,0.3875,
2008-03-11, 00:22:04,VALID,1003.73,VALID,0,VALID,92.8969,VALID,0,VALID,23.9018,VALID,13,VALID,0.408594,
2008-03-11, 00:23:04,VALID,1003.73,VALID,0,VALID,92.8816,VALID,0,VALID,23.8416,VALID,13,VALID,0.619531,
2008-03-11, 00:24:04,VALID,1003.71,VALID,0,VALID,92.8969,VALID,0,VALID,23.8027,VALID,13,VALID,0.667969,
2008-03-11, 00:25:04,VALID,1003.7,VALID,0,VALID,93.1791,VALID,0,VALID,23.7637,VALID,12,VALID,0.566406,
2008-03-11, 00:26:04,VALID,1003.71,VALID,0,VALID,93.4004,VALID,0,VALID,23.7655,VALID,12,VALID,0.480469,
2008-03-11, 00:27:04,VALID,1003.65,VALID,0,VALID,93.6216,VALID,0,VALID,23.7248,VALID,12,VALID,0.228906,
2008-03-11, 00:28:04,VALID,1003.62,VALID,0,VALID,93.7589,VALID,0,VALID,23.7655,VALID,12,VALID,0,
2008-03-11, 00:29:04,VALID,1003.58,VALID,0,VALID,93.8734,VALID,0,VALID,23.7461,VALID,12,VALID,0,
2008-03-11, 00:30:04,VALID,1003.58,VALID,0,VALID,93.8581,VALID,0,VALID,23.7035,VALID,12,VALID,0,
2008-03-11, 00:31:04,VALID,1003.54,VALID,0,VALID,93.8886,VALID,0,VALID,23.7053,VALID,12,VALID,0,
2008-03-11, 00:32:04,VALID,1003.52,VALID,0,VALID,93.8886,VALID,0,VALID,23.7266,VALID,12,VALID,0,
2008-03-11, 00:33:04,VALID,1003.52,VALID,0,VALID,93.8734,VALID,0,VALID,23.7053,VALID,12,VALID,0,
2008-03-11, 00:34:04,VALID,1003.49,VALID,0,VALID,93.8734,VALID,0,VALID,23.7443,VALID,12,VALID,0,
2008-03-11, 00:35:04,VALID,1003.47,VALID,0,VALID,93.8429,VALID,0,VALID,23.7443,VALID,12,VALID,0,
2008-03-11, 00:36:04,VALID,1003.5,VALID,0,VALID,93.8734,VALID,0,VALID,23.7655,VALID,12,VALID,0,
2008-03-11, 00:37:04,VALID,1003.51,VALID,0,VALID,93.9115,VALID,0,VALID,23.7443,VALID,12,VALID,0,
2008-03-11, 00:38:04,VALID,1003.47,VALID,0,VALID,93.9497,VALID,0,VALID,23.7443,VALID,12,VALID,0,
2008-03-11, 00:39:04,VALID,1003.48,VALID,0,VALID,93.9497,VALID,0,VALID,23.7248,VALID,12,VALID,0,
2008-03-11, 00:40:04,VALID,1003.46,VALID,0,VALID,93.8657,VALID,0,VALID,23.7266,VALID,12,VALID,0.407813,
2008-03-11, 00:41:04,VALID,1003.44,VALID,0,VALID,93.8276,VALID,0,VALID,23.7053,VALID,15,VALID,0.223438,
2008-03-11, 00:42:04,VALID,1003.44,VALID,0,VALID,93.8123,VALID,0,VALID,23.6664,VALID,15,VALID,0,
2008-03-11, 00:43:04,VALID,1003.42,VALID,0,VALID,93.8352,VALID,0,VALID,23.6275,VALID,15,VALID,0,
2008-03-11, 00:44:04,VALID,1003.41,VALID,0,VALID,94.0107,VALID,0,VALID,23.6275,VALID,15,VALID,0.00390625,
2008-03-11, 00:45:04,VALID,1003.41,VALID,0,VALID,94.0946,VALID,0,VALID,23.6469,VALID,15,VALID,0,
2008-03-11, 00:46:04,VALID,1003.41,VALID,0,VALID,94.1022,VALID,0,VALID,23.6487,VALID,15,VALID,0,
2008-03-11, 00:47:04,VALID,1003.42,VALID,0,VALID,94.0565,VALID,0,VALID,23.6275,VALID,15,VALID,0.180078,
2008-03-11, 00:48:04,VALID,1003.42,VALID,0,VALID,94.0107,VALID,0,VALID,23.608,VALID,15,VALID,0,
2008-03-11, 00:49:04,VALID,1003.43,VALID,0,VALID,94.0794,VALID,0,VALID,23.608,VALID,15,VALID,0.194922,
2008-03-11, 00:50:04,VALID,1003.43,VALID,0,VALID,94.0794,VALID,0,VALID,23.5885,VALID,15,VALID,0.218359,
2008-03-11, 00:51:04,VALID,1003.43,VALID,0,VALID,93.942,VALID,0,VALID,23.5496,VALID,15,VALID,0.195703,
2008-03-11, 00:52:04,VALID,1003.35,VALID,0,VALID,93.9802,VALID,0,VALID,23.5514,VALID,16,VALID,0.330078,
2008-03-11, 00:53:04,VALID,1003.31,VALID,0,VALID,94.0336,VALID,0,VALID,23.5302,VALID,16,VALID,0.323047,
2008-03-11, 00:54:04,VALID,1003.27,VALID,0,VALID,94.1785,VALID,0.100563,VALID,23.4912,VALID,16,VALID,0.233984,
2008-03-11, 00:55:04,VALID,1003.3,VALID,0,VALID,94.2548,VALID,0,VALID,23.4912,VALID,16,VALID,0.179297,
2008-03-11, 00:56:04,VALID,1003.28,VALID,0,VALID,94.2777,VALID,0,VALID,23.4912,VALID,16,VALID,0.247266,
2008-03-11, 00:57:04,VALID,1003.26,VALID,0,VALID,94.2701,VALID,0,VALID,23.4912,VALID,16,VALID,0.507031,
2008-03-11, 00:58:04,VALID,1003.22,VALID,0,VALID,94.2167,VALID,0,VALID,23.5107,VALID,16,VALID,0.375391,
2008-03-11, 00:59:04,VALID,1003.18,VALID,0,VALID,94.1251,VALID,0,VALID,23.5107,VALID,16,VALID,0.312891,
2008-03-11, 01:00:04,VALID,1003.2,VALID,0,VALID,94.0031,VALID,0,VALID,23.47,VALID,16,VALID,0.421484,
2008-03-11, 01:01:04,VALID,1003.22,VALID,0,VALID,94.087,VALID,0,VALID,23.4912,VALID,16,VALID,0.370703,
2008-03-11, 01:02:04,VALID,1003.23,VALID,0,VALID,94.1556,VALID,0,VALID,23.4718,VALID,16,VALID,0.309766,
2008-03-11, 01:03:04,VALID,1003.22,VALID,0,VALID,94.2014,VALID,0,VALID,23.4718,VALID,16,VALID,0.0691406,
2008-03-11, 01:04:04,VALID,1003.22,VALID,0,VALID,94.1709,VALID,0.100563,VALID,23.4523,VALID,16,VALID,0,
2008-03-11, 01:05:04,VALID,1003.2,VALID,0,VALID,94.209,VALID,0,VALID,23.4523,VALID,16,VALID,0,
2008-03-11, 01:06:04,VALID,1003.18,VALID,0,VALID,94.2167,VALID,0,VALID,23.4328,VALID,16,VALID,0,
2008-03-11, 01:07:04,VALID,1003.18,VALID,0,VALID,94.293,VALID,0,VALID,23.4523,VALID,16,VALID,0,
2008-03-11, 01:08:04,VALID,1003.19,VALID,0,VALID,94.3082,VALID,0,VALID,23.4718,VALID,16,VALID,0,
2008-03-11, 01:09:04,VALID,1003.16,VALID,0,VALID,94.1328,VALID,0,VALID,23.4328,VALID,16,VALID,0,
2008-03-11, 01:10:04,VALID,1003.13,VALID,0,VALID,94.0946,VALID,0,VALID,23.4311,VALID,16,VALID,0.266406,
2008-03-11, 01:11:04,VALID,1003.12,VALID,0,VALID,94.1785,VALID,0,VALID,23.4523,VALID,16,VALID,0.310937,
2008-03-11, 01:12:04,VALID,1003.1,VALID,0,VALID,94.2777,VALID,0,VALID,23.493,VALID,16,VALID,0,
2008-03-11, 01:13:04,VALID,1003.12,VALID,0,VALID,94.3311,VALID,0,VALID,23.4718,VALID,16,VALID,0.323828,
2008-03-11, 01:14:04,VALID,1003.08,VALID,0,VALID,94.2548,VALID,0,VALID,23.4718,VALID,16,VALID,0.600391,
2008-03-11, 01:15:04,VALID,1003.06,VALID,0,VALID,94.1938,VALID,0,VALID,23.4718,VALID,16,VALID,0.683984,
2008-03-11, 01:16:04,VALID,1003.08,VALID,0,VALID,94.0946,VALID,0,VALID,23.4912,VALID,16,VALID,0.538672,
2008-03-11, 01:17:04,VALID,1003.1,VALID,0,VALID,94.087,VALID,0.100563,VALID,23.5107,VALID,16,VALID,0.460156,
2008-03-11, 01:18:04,VALID,1003.04,VALID,0,VALID,94.0183,VALID,0,VALID,23.4912,VALID,16,VALID,0.405078,
2008-03-11, 01:19:04,VALID,1003.02,VALID,0,VALID,94.087,VALID,0,VALID,23.4912,VALID,16,VALID,0.411328,
2008-03-11, 01:20:04,VALID,1002.97,VALID,0,VALID,94.2167,VALID,0,VALID,23.4894,VALID,8,VALID,0.455859,
2008-03-11, 01:21:04,VALID,1002.93,VALID,0,VALID,94.4227,VALID,0.100563,VALID,23.5302,VALID,8,VALID,0.374219,
2008-03-11, 01:22:04,VALID,1002.92,VALID,0,VALID,94.5142,VALID,0.100563,VALID,23.5302,VALID,8,VALID,0.274609,
2008-03-11, 01:23:04,VALID,1002.91,VALID,0,VALID,94.5066,VALID,0.100563,VALID,23.5478,VALID,8,VALID,0.375391,
2008-03-11, 01:24:04,VALID,1002.87,VALID,0,VALID,94.4989,VALID,0,VALID,23.5496,VALID,8,VALID,0.341406,
2008-03-11, 01:25:04,VALID,1002.86,VALID,0,VALID,94.4074,VALID,0,VALID,23.5302,VALID,8,VALID,0.390625,
2008-03-11, 01:26:04,VALID,1002.83,VALID,0,VALID,94.354,VALID,0.100563,VALID,23.5319,VALID,8,VALID,0.387891,
2008-03-11, 01:27:04,VALID,1002.77,VALID,0,VALID,94.3082,VALID,0,VALID,23.4912,VALID,8,VALID,0.490625,
2008-03-11, 01:28:04,VALID,1002.75,VALID,0,VALID,94.3464,VALID,0,VALID,23.4505,VALID,8,VALID,0.570313,
2008-03-11, 01:29:04,VALID,1002.69,VALID,0,VALID,94.3998,VALID,0.100563,VALID,23.4718,VALID,8,VALID,0.535156,
2008-03-11, 01:30:04,VALID,1002.69,VALID,0,VALID,94.3387,VALID,0.100563,VALID,23.4116,VALID,8,VALID,0.492969,
2008-03-11, 01:31:04,VALID,1002.66,VALID,0,VALID,94.4227,VALID,0.100563,VALID,23.4116,VALID,8,VALID,0.430859,
2008-03-11, 01:32:04,VALID,1002.58,VALID,0,VALID,94.5829,VALID,0.100563,VALID,23.4328,VALID,8,VALID,0.435156,
2008-03-11, 01:33:04,VALID,1002.55,VALID,0,VALID,94.5905,VALID,0,VALID,23.4328,VALID,7,VALID,0.280859,
2008-03-11, 01:34:04,VALID,1002.51,VALID,0,VALID,94.5295,VALID,0.100563,VALID,23.4328,VALID,352,VALID,0.324219,
2008-03-11, 01:35:04,VALID,1002.52,VALID,0,VALID,94.4913,VALID,0.100563,VALID,23.4328,VALID,351,VALID,0,
2008-03-11, 01:36:04,VALID,1002.56,VALID,0,VALID,94.4455,VALID,0,VALID,23.4523,VALID,351,VALID,0,
2008-03-11, 01:37:04,VALID,1002.57,VALID,0,VALID,94.4608,VALID,0.100563,VALID,23.4718,VALID,351,VALID,0,
2008-03-11, 01:38:04,VALID,1002.54,VALID,0,VALID,94.4608,VALID,0.100563,VALID,23.4718,VALID,351,VALID,0,
2008-03-11, 01:39:04,VALID,1002.52,VALID,0,VALID,94.4608,VALID,0.100563,VALID,23.493,VALID,351,VALID,0,
2008-03-11, 01:40:04,VALID,1002.48,VALID,0,VALID,94.4684,VALID,0,VALID,23.4505,VALID,351,VALID,0,
2008-03-11, 01:41:04,VALID,1002.49,VALID,0,VALID,94.5142,VALID,0,VALID,23.4912,VALID,351,VALID,0,
2008-03-11, 01:42:04,VALID,1002.49,VALID,0,VALID,94.4532,VALID,0.100563,VALID,23.4912,VALID,356,VALID,0,
2008-03-11, 01:43:04,VALID,1002.48,VALID,0,VALID,94.3464,VALID,0,VALID,23.47,VALID,7,VALID,0.554297,
2008-03-11, 01:44:04,VALID,1002.45,VALID,0,VALID,94.3235,VALID,0,VALID,23.4718,VALID,7,VALID,0.48125,
2008-03-11, 01:45:04,VALID,1002.41,VALID,0,VALID,94.1709,VALID,0,VALID,23.4718,VALID,7,VALID,0.579297,
2008-03-11, 01:46:04,VALID,1002.4,VALID,0,VALID,94.0717,VALID,0,VALID,23.4718,VALID,7,VALID,0.493359,
2008-03-11, 01:47:04,VALID,1002.38,VALID,0,VALID,94.1175,VALID,0.100563,VALID,23.4523,VALID,7,VALID,0.446484,
2008-03-11, 01:48:04,VALID,1002.41,VALID,0,VALID,94.1328,VALID,0,VALID,23.4523,VALID,7,VALID,0.382031,
2008-03-11, 01:49:04,VALID,1002.43,VALID,0,VALID,94.2701,VALID,0,VALID,23.4718,VALID,7,VALID,0.166797,
2008-03-11, 01:50:04,VALID,1002.42,VALID,0,VALID,94.2243,VALID,0.100563,VALID,23.47,VALID,7,VALID,0,
2008-03-11, 01:51:04,VALID,1002.39,VALID,0,VALID,94.3082,VALID,0,VALID,23.47,VALID,7,VALID,0,
2008-03-11, 01:52:04,VALID,1002.38,VALID,0,VALID,94.293,VALID,0.100563,VALID,23.5107,VALID,7,VALID,0,
2008-03-11, 01:53:04,VALID,1002.35,VALID,0,VALID,94.2243,VALID,0.100563,VALID,23.4894,VALID,7,VALID,0,
2008-03-11, 01:54:04,VALID,1002.34,VALID,0,VALID,94.1404,VALID,0.100563,VALID,23.5107,VALID,7,VALID,0.198828,
2008-03-11, 01:55:04,VALID,1002.35,VALID,0,VALID,94.1785,VALID,0.100563,VALID,23.5107,VALID,7,VALID,0.284766,
2008-03-11, 01:56:04,VALID,1002.34,VALID,0,VALID,94.2014,VALID,0,VALID,23.5107,VALID,7,VALID,0.38125,
2008-03-11, 01:57:04,VALID,1002.29,VALID,0,VALID,94.1709,VALID,0,VALID,23.4912,VALID,7,VALID,0.178125,
2008-03-11, 01:58:04,VALID,1002.26,VALID,0,VALID,94.148,VALID,0,VALID,23.4718,VALID,7,VALID,0.214062,
2008-03-11, 01:59:04,VALID,1002.26,VALID,0,VALID,94.209,VALID,0.100563,VALID,23.4912,VALID,7,VALID,0,
2008-03-11, 02:00:04,VALID,1002.24,VALID,0,VALID,94.2624,VALID,0,VALID,23.4718,VALID,7,VALID,0.0453125,
2008-03-11, 02:01:04,VALID,1002.23,VALID,0,VALID,94.3311,VALID,0,VALID,23.4718,VALID,7,VALID,0.244922,
2008-03-11, 02:02:04,VALID,1002.24,VALID,0,VALID,94.3082,VALID,0,VALID,23.4505,VALID,7,VALID,0.251953,
2008-03-11, 02:03:04,VALID,1002.19,VALID,0,VALID,94.3311,VALID,0.100563,VALID,23.4523,VALID,7,VALID,0.20625,
2008-03-11, 02:04:04,VALID,1002.23,VALID,0,VALID,94.3311,VALID,0,VALID,23.4735,VALID,7,VALID,0.169531,
2008-03-11, 02:05:04,VALID,1002.19,VALID,0,VALID,94.3692,VALID,0,VALID,23.4328,VALID,7,VALID,0.0265625,
2008-03-11, 02:06:04,VALID,1002.18,VALID,0,VALID,94.3845,VALID,0,VALID,23.4328,VALID,7,VALID,0.160938,
2008-03-11, 02:07:04,VALID,1002.16,VALID,0,VALID,94.3769,VALID,0,VALID,23.4328,VALID,7,VALID,0,
2008-03-11, 02:08:04,VALID,1002.12,VALID,0,VALID,94.3311,VALID,0,VALID,23.4328,VALID,7,VALID,0,
2008-03-11, 02:09:04,VALID,1002.14,VALID,0,VALID,94.3387,VALID,0.100563,VALID,23.4328,VALID,7,VALID,0,
2008-03-11, 02:10:04,VALID,1002.13,VALID,0,VALID,94.4074,VALID,0.100563,VALID,23.4523,VALID,7,VALID,0.0078125,
2008-03-11, 02:11:04,VALID,1002.14,VALID,0,VALID,94.3769,VALID,0.100563,VALID,23.4311,VALID,7,VALID,0.447266,
2008-03-11, 02:12:04,VALID,1002.17,VALID,0,VALID,94.354,VALID,0.100563,VALID,23.4523,VALID,7,VALID,0.544922,
2008-03-11, 02:13:04,VALID,1002.18,VALID,0,VALID,94.293,VALID,0.100563,VALID,23.4328,VALID,7,VALID,0.55,
2008-03-11, 02:14:04,VALID,1002.18,VALID,0,VALID,94.2167,VALID,0,VALID,23.4134,VALID,7,VALID,0.404297,
2008-03-11, 02:15:04,VALID,1002.17,VALID,0,VALID,94.2853,VALID,0.100563,VALID,23.3939,VALID,7,VALID,0.335547,
2008-03-11, 02:16:04,VALID,1002.14,VALID,0,VALID,94.2701,VALID,0,VALID,23.3532,VALID,7,VALID,0.404687,
2008-03-11, 02:17:04,VALID,1002.18,VALID,0,VALID,94.3998,VALID,0.100563,VALID,23.3744,VALID,7,VALID,0.410547,
2008-03-11, 02:18:04,VALID,1002.19,VALID,0,VALID,94.4761,VALID,0,VALID,23.3957,VALID,7,VALID,0.382422,
2008-03-11, 02:19:04,VALID,1002.18,VALID,0,VALID,94.56,VALID,0,VALID,23.3532,VALID,7,VALID,0.325781,
2008-03-11, 02:20:04,VALID,1002.19,VALID,0,VALID,94.5447,VALID,0.100563,VALID,23.3727,VALID,7,VALID,0.515234,
2008-03-11, 02:21:04,VALID,1002.16,VALID,0,VALID,94.5066,VALID,0,VALID,23.3939,VALID,7,VALID,0.607422,
2008-03-11, 02:22:04,VALID,1002.19,VALID,0,VALID,94.4913,VALID,0.100563,VALID,23.3744,VALID,8,VALID,0.551562,
2008-03-11, 02:23:04,VALID,1002.13,VALID,0,VALID,94.4837,VALID,0.100563,VALID,23.355,VALID,8,VALID,0.486328,
2008-03-11, 02:24:04,VALID,1002.11,VALID,0,VALID,94.4608,VALID,0,VALID,23.3355,VALID,8,VALID,0.403516,
2008-03-11, 02:25:04,VALID,1002.1,VALID,0,VALID,94.6439,VALID,0,VALID,23.3143,VALID,8,VALID,0.184375,
2008-03-11, 02:26:04,VALID,1002.08,VALID,0,VALID,94.7736,VALID,0,VALID,23.355,VALID,8,VALID,0.157422,
2008-03-11, 02:27:04,VALID,1002.1,VALID,0,VALID,94.7736,VALID,0.100563,VALID,23.3744,VALID,8,VALID,0,
2008-03-11, 02:28:04,VALID,1002.1,VALID,0,VALID,94.7583,VALID,0,VALID,23.3939,VALID,8,VALID,0,
2008-03-11, 02:29:04,VALID,1002.12,VALID,0,VALID,94.7812,VALID,0,VALID,23.3727,VALID,8,VALID,0,
2008-03-11, 02:30:04,VALID,1002.13,VALID,0,VALID,94.7583,VALID,0,VALID,23.4134,VALID,8,VALID,0.228516,
2008-03-11, 02:31:04,VALID,1002.13,VALID,0,VALID,94.6897,VALID,0.100563,VALID,23.3727,VALID,8,VALID,0.379297,
2008-03-11, 02:32:04,VALID,1002.13,VALID,0,VALID,94.6515,VALID,0,VALID,23.3744,VALID,8,VALID,0.349219,
2008-03-11, 02:33:04,VALID,1002.2,VALID,0,VALID,94.6286,VALID,0,VALID,23.3744,VALID,8,VALID,0.0824219,
2008-03-11, 02:34:04,VALID,1002.21,VALID,0,VALID,94.5676,VALID,0,VALID,23.3532,VALID,8,VALID,0,
2008-03-11, 02:35:04,VALID,1002.25,VALID,0,VALID,94.6363,VALID,0.100563,VALID,23.3744,VALID,8,VALID,0,
2008-03-11, 02:36:04,VALID,1002.29,VALID,0,VALID,94.6591,VALID,0.100563,VALID,23.355,VALID,8,VALID,0,
2008-03-11, 02:37:04,VALID,1002.24,VALID,0,VALID,94.6439,VALID,0.100563,VALID,23.3337,VALID,8,VALID,0,
2008-03-11, 02:38:04,VALID,1002.23,VALID,0,VALID,94.6973,VALID,0.100563,VALID,23.3744,VALID,8,VALID,0.273047,
2008-03-11, 02:39:04,VALID,1002.21,VALID,0,VALID,94.6744,VALID,0.100563,VALID,23.3744,VALID,8,VALID,0,
2008-03-11, 02:40:04,VALID,1002.21,VALID,0,VALID,94.56,VALID,0.100563,VALID,23.3939,VALID,8,VALID,0,
2008-03-11, 02:41:04,VALID,1002.21,VALID,0,VALID,94.5218,VALID,0,VALID,23.3744,VALID,8,VALID,0,
2008-03-11, 02:42:04,VALID,1002.28,VALID,0,VALID,94.4684,VALID,0.100563,VALID,23.3727,VALID,8,VALID,0.282422,
2008-03-11, 02:43:04,VALID,1002.28,VALID,0,VALID,94.415,VALID,0,VALID,23.3957,VALID,8,VALID,0.340625,
2008-03-11, 02:44:04,VALID,1002.28,VALID,0,VALID,94.3616,VALID,0,VALID,23.3744,VALID,8,VALID,0.382031,
2008-03-11, 02:45:04,VALID,1002.24,VALID,0,VALID,94.3082,VALID,0,VALID,23.3762,VALID,8,VALID,0.363281,
2008-03-11, 02:46:04,VALID,1002.23,VALID,0,VALID,94.3311,VALID,0,VALID,23.3355,VALID,8,VALID,0.334766,
2008-03-11, 02:47:04,VALID,1002.27,VALID,0,VALID,94.354,VALID,0,VALID,23.3355,VALID,8,VALID,0.453906,
2008-03-11, 02:48:04,VALID,1002.25,VALID,0,VALID,94.4684,VALID,0.100563,VALID,23.316,VALID,8,VALID,0.447266,
2008-03-11, 02:49:04,VALID,1002.26,VALID,0,VALID,94.5981,VALID,0,VALID,23.3178,VALID,8,VALID,0.405469,
2008-03-11, 02:50:04,VALID,1002.25,VALID,0,VALID,94.6897,VALID,0,VALID,23.3355,VALID,8,VALID,0.389062,
2008-03-11, 02:51:04,VALID,1002.23,VALID,0,VALID,94.7354,VALID,0,VALID,23.3567,VALID,8,VALID,0.300391,
2008-03-11, 02:52:04,VALID,1002.23,VALID,0,VALID,94.7125,VALID,0.100563,VALID,23.3355,VALID,8,VALID,0.33125,
2008-03-11, 02:53:04,VALID,1002.17,VALID,0,VALID,94.7278,VALID,0,VALID,23.3744,VALID,8,VALID,0.394531,
2008-03-11, 02:54:04,VALID,1002.17,VALID,0,VALID,94.7049,VALID,0,VALID,23.3337,VALID,8,VALID,0.469922,
2008-03-11, 02:55:04,VALID,1002.17,VALID,0,VALID,94.6668,VALID,0,VALID,23.355,VALID,8,VALID,0.482422,
2008-03-11, 02:56:04,VALID,1002.14,VALID,0,VALID,94.6897,VALID,0,VALID,23.355,VALID,8,VALID,0.557813,
2008-03-11, 02:57:04,VALID,1002.11,VALID,0,VALID,94.7354,VALID,0,VALID,23.355,VALID,8,VALID,0.600391,
2008-03-11, 02:58:04,VALID,1002.13,VALID,0,VALID,94.7888,VALID,0,VALID,23.355,VALID,8,VALID,0.689062,
2008-03-11, 02:59:04,VALID,1002.08,VALID,0,VALID,94.7965,VALID,0,VALID,23.355,VALID,8,VALID,0.495703,
2008-03-11, 03:00:04,VALID,1002.05,VALID,0,VALID,94.682,VALID,0.100563,VALID,23.3355,VALID,8,VALID,0.335938,
2008-03-11, 03:01:04,VALID,1002.08,VALID,0,VALID,94.6668,VALID,0,VALID,23.316,VALID,8,VALID,0.238672,
2008-03-11, 03:02:04,VALID,1002.09,VALID,0,VALID,94.766,VALID,0,VALID,23.2966,VALID,8,VALID,0,
2008-03-11, 03:03:04,VALID,1002.11,VALID,0,VALID,94.8117,VALID,0,VALID,23.2966,VALID,8,VALID,0,
2008-03-11, 03:04:04,VALID,1002.12,VALID,0,VALID,94.7965,VALID,0,VALID,23.2771,VALID,8,VALID,0,
2008-03-11, 03:05:04,VALID,1002.09,VALID,0,VALID,94.8346,VALID,0,VALID,23.2754,VALID,8,VALID,0,
2008-03-11, 03:06:04,VALID,1002.1,VALID,0,VALID,94.9109,VALID,0,VALID,23.316,VALID,8,VALID,0,
2008-03-11, 03:07:04,VALID,1002.12,VALID,0,VALID,94.8804,VALID,0.100563,VALID,23.3567,VALID,8,VALID,0,
2008-03-11, 03:08:04,VALID,1002.16,VALID,0,VALID,94.7965,VALID,0,VALID,23.3337,VALID,9,VALID,0,
2008-03-11, 03:09:04,VALID,1002.19,VALID,0,VALID,94.7888,VALID,0,VALID,23.3532,VALID,9,VALID,0.460938,
2008-03-11, 03:10:04,VALID,1002.2,VALID,0,VALID,94.7278,VALID,0,VALID,23.3939,VALID,18,VALID,0.543359,
2008-03-11, 03:11:04,VALID,1002.18,VALID,0,VALID,94.5752,VALID,0,VALID,23.4523,VALID,20,VALID,0.547266,
2008-03-11, 03:12:04,VALID,1002.17,VALID,0,VALID,94.3769,VALID,0,VALID,23.5107,VALID,20,VALID,0.616016,
2008-03-11, 03:13:04,VALID,1002.18,VALID,0,VALID,94.1709,VALID,0,VALID,23.5496,VALID,20,VALID,0.577344,
2008-03-11, 03:14:04,VALID,1002.17,VALID,0,VALID,93.9497,VALID,0,VALID,23.5709,VALID,20,VALID,0.544141,
2008-03-11, 03:15:04,VALID,1002.18,VALID,0,VALID,93.7742,VALID,0,VALID,23.5496,VALID,20,VALID,0.537109,
2008-03-11, 03:16:04,VALID,1002.15,VALID,0,VALID,93.5301,VALID,0,VALID,23.5302,VALID,17,VALID,0.449609,
2008-03-11, 03:17:04,VALID,1002.16,VALID,0,VALID,93.6445,VALID,0,VALID,23.5107,VALID,16,VALID,0.4125,
2008-03-11, 03:18:04,VALID,1002.2,VALID,0,VALID,93.6903,VALID,0,VALID,23.4912,VALID,16,VALID,0.366797,
2008-03-11, 03:19:04,VALID,1002.23,VALID,0,VALID,93.9497,VALID,0,VALID,23.4718,VALID,16,VALID,0.437109,
2008-03-11, 03:20:04,VALID,1002.23,VALID,0,VALID,94.0794,VALID,0,VALID,23.4718,VALID,16,VALID,0.43125,
2008-03-11, 03:21:04,VALID,1002.2,VALID,0,VALID,94.1709,VALID,0,VALID,23.4328,VALID,16,VALID,0.480859,
2008-03-11, 03:22:04,VALID,1002.22,VALID,0,VALID,94.3082,VALID,0.100563,VALID,23.4134,VALID,16,VALID,0.352344,
2008-03-11, 03:23:04,VALID,1002.16,VALID,0,VALID,94.4455,VALID,0,VALID,23.4134,VALID,16,VALID,0.428125,
2008-03-11, 03:24:04,VALID,1002.14,VALID,0,VALID,94.5523,VALID,0.100563,VALID,23.4134,VALID,16,VALID,0.363672,
2008-03-11, 03:25:04,VALID,1002.09,VALID,0,VALID,94.4989,VALID,0.100563,VALID,23.3939,VALID,15,VALID,0.394531,
2008-03-11, 03:26:04,VALID,1002.07,VALID,0,VALID,94.5676,VALID,0.100563,VALID,23.4134,VALID,358,VALID,0.549609,
2008-03-11, 03:27:04,VALID,1002.03,VALID,0,VALID,94.6363,VALID,0,VALID,23.4134,VALID,344,VALID,0.408594,
2008-03-11, 03:28:04,VALID,1001.96,VALID,0,VALID,94.6591,VALID,0,VALID,23.4328,VALID,333,VALID,0,
2008-03-11, 03:29:04,VALID,1001.91,VALID,0,VALID,94.6363,VALID,0,VALID,23.4523,VALID,283,VALID,0.657422,
2008-03-11, 03:30:04,VALID,1001.9,VALID,0,VALID,94.5981,VALID,0,VALID,23.4718,VALID,283,VALID,0.237891,
2008-03-11, 03:31:04,VALID,1001.92,VALID,0,VALID,94.5218,VALID,0,VALID,23.5089,VALID,290,VALID,0.0121094,
2008-03-11, 03:32:04,VALID,1001.92,VALID,0,VALID,94.4455,VALID,0,VALID,23.5302,VALID,303,VALID,0,
2008-03-11, 03:33:04,VALID,1001.95,VALID,0,VALID,94.1175,VALID,0,VALID,23.5107,VALID,12,VALID,0.685547,
2008-03-11, 03:34:04,VALID,1001.95,VALID,0,VALID,94.0565,VALID,0,VALID,23.5125,VALID,11,VALID,0.676562,
2008-03-11, 03:35:04,VALID,1002,VALID,0,VALID,94.087,VALID,0.100563,VALID,23.4328,VALID,7,VALID,0.728516,
2008-03-11, 03:36:04,VALID,1002.01,VALID,0,VALID,94.2624,VALID,0,VALID,23.4134,VALID,8,VALID,0.621484,
2008-03-11, 03:37:04,VALID,1001.99,VALID,0,VALID,94.3998,VALID,0,VALID,23.3939,VALID,6,VALID,0.557031,
2008-03-11, 03:38:04,VALID,1002.02,VALID,0,VALID,94.4761,VALID,0,VALID,23.3939,VALID,6,VALID,0.334375,
2008-03-11, 03:39:04,VALID,1002.02,VALID,0,VALID,94.6057,VALID,0.100563,VALID,23.3939,VALID,6,VALID,0.303125,
2008-03-11, 03:40:04,VALID,1002.01,VALID,0,VALID,94.6668,VALID,0.100563,VALID,23.3939,VALID,6,VALID,0.336719,
2008-03-11, 03:41:04,VALID,1002.03,VALID,0,VALID,94.7736,VALID,0,VALID,23.4134,VALID,6,VALID,0.307031,
2008-03-11, 03:42:04,VALID,1002.04,VALID,0,VALID,94.8117,VALID,0.100563,VALID,23.3921,VALID,6,VALID,0.196875,
2008-03-11, 03:43:04,VALID,1002.04,VALID,0,VALID,94.7812,VALID,0,VALID,23.4328,VALID,6,VALID,0.146484,
2008-03-11, 03:44:04,VALID,1002.07,VALID,0,VALID,94.7965,VALID,0,VALID,23.4116,VALID,6,VALID,0.167187,
2008-03-11, 03:45:04,VALID,1002.07,VALID,0,VALID,94.8575,VALID,0,VALID,23.4134,VALID,6,VALID,0.000390625,
2008-03-11, 03:46:04,VALID,1002.06,VALID,0,VALID,94.8346,VALID,0.100563,VALID,23.4328,VALID,6,VALID,0.278125,
2008-03-11, 03:47:04,VALID,1002.09,VALID,0,VALID,94.8575,VALID,0.100563,VALID,23.4328,VALID,6,VALID,0.513281,